Hourly Data Report for September 03, 2017

All times are specified in Local Standard Time (LST). Add 1 hour to adjust for Daylight Saving Time where and when it is observed.

SUSSEX FOUR CORNERS
NEW BRUNSWICK

45°44'30.048" N
65°31'44.039" W
47.00 m
8105210
71656
ASF

Download Data

Hourly Data (September 2017)
Hourly Data Report for September 3, 2017
Temp Definition
°C
Dew Point Temp Definition
°C
Rel Hum Definition
%
Wind Dir Definition
10's deg

Wind Spd Definition
km/h
Visibility Definition
km
Stn Press Definition
kPa
Hmdx Definition


Wind Chill Definition


Weather Definition


TIME
00:00 8.2 7.5 96 0 1   101.62     LegendNANA
01:00 7.2 6.7 96 36 3   101.63     LegendNANA
02:00 7.3 6.9 97 4 2   101.63     LegendNANA
03:00 6.3 5.9 98 24 5   101.66     LegendNANA
04:00 5.8 5.5 98 19 3   101.68     LegendNANA
05:00 5.7 5.4 98 6 3   101.65     LegendNANA
06:00 6.2 5.9 98 7 3   101.65     LegendNANA
07:00 6.7 6.5 98   0   101.72     LegendNANA
08:00 10.0 8.7 92   0   101.76     LegendNANA
09:00 13.6 10.1 79 4 2   101.74     LegendNANA
10:00 15.8 11.3 74 22 2   101.69     LegendNANA
11:00 17.5 11.5 68 19 7   101.62     LegendNANA
12:00 18.8 9.0 53 16 16   101.53     LegendNANA
13:00 18.9 9.3 54 18 12   101.51     LegendNANA
14:00 19.3 8.8 51 17 16   101.43     LegendNANA
15:00 19.3 9.0 51 16 18   101.37     LegendNANA
16:00 17.9 9.7 59 13 17   101.29     LegendNANA
17:00 16.9 10.2 65 15 16   101.26     LegendNANA
18:00 15.6 10.0 69 13 14   101.14     LegendNANA
19:00 14.6 9.9 74 13 17   101.05     LegendNANA
20:00 14.1 9.8 76 11 13   100.89     LegendNANA
21:00 14.1 10.2 77 11 14   100.79     LegendNANA
22:00 13.4 10.8 84 11 13   100.65     LegendNANA
23:00 12.5 11.5 94 6 9   100.44     LegendNANA

Notes on Data Quality.

Legend

  • E = Estimated
  • M = Missing
  • NA = Not Available
  • ‡ = Partner data that is not subject to review by the National Climate Archives
Date modified: